FW1574 Weather Reports


Display with metric or nautical units.
time (UTC)temp
F
wind
direction
speed
MPH
gust
MPH
rain 1hr
in
rain 24hr
in
rain mn
in
humidity
%
barometer
mb
20260902164541 89 318 0.0 0.0 0.00 0.00 0.00 69 1018.1
20260902164040 88 230 0.0 0.0 0.00 0.00 0.00 67 1018.1
20260902163539 89 253 0.0 0.0 0.00 0.00 0.00 70 1018.2
20260902163042 88 279 0.0 0.0 0.00 0.00 0.00 71 1018.3
20260902162538 88 273 0.0 0.0 0.00 0.00 0.00 72 1018.3
20260902162038 88 311 0.0 0.0 0.00 0.00 0.00 71 1018.3
20260902161541 88 316 0.0 0.0 0.00 0.00 0.00 71 1018.4
20260902161037 88 336 0.0 0.0 0.00 0.00 0.00 71 1018.5
20260902160535 88 265 0.0 0.0 0.00 0.00 0.00 72 1018.5
20260902160035 87 235 0.0 0.0 0.00 0.00 0.00 72 1018.5
20260902155535 87 215 0.0 0.0 0.00 0.00 0.00 70 1018.6
20260902155037 87 298 0.0 0.0 0.00 0.00 0.00 71 1018.7
20260902154533 87 355 0.0 0.0 0.00 0.00 0.00 72 1018.6
20260902154032 86 264 0.0 0.0 0.00 0.00 0.00 75 1018.7
20260902153531 86 264 0.0 0.0 0.00 0.00 0.00 74 1018.8
20260902153030 86 335 0.0 0.0 0.00 0.00 0.00 73 1018.8
20260902152529 86 170 0.0 0.0 0.00 0.00 0.00 71 1018.8
20260902152029 85 102 0.0 0.0 0.00 0.00 0.00 74 1018.9
20260902151530 85 32 0.0 0.0 0.00 0.00 0.00 75 1018.9
20260902151027 85 76 0.0 0.0 0.00 0.00 0.00 77 1018.9
20260902150524 84 96 0.0 0.0 0.00 0.00 0.00 78 1018.9
20260902150023 84 271 0.0 0.0 0.00 0.00 0.00 78 1018.8
20260902145523 83 355 0.0 0.0 0.00 0.00 0.00 79 1018.8
20260902145022 83 17 0.0 0.0 0.00 0.00 0.00 78 1018.8
20260902144522 83 90 0.0 0.0 0.00 0.00 0.00 78 1018.8
20260902144021 83 125 0.0 0.0 0.00 0.00 0.00 78 1018.8
20260902143524 82 348 0.0 0.0 0.00 0.00 0.00 80 1018.7
20260902143019 82 5 0.0 0.0 0.00 0.00 0.00 80 1018.7
20260902142521 82 344 0.0 0.0 0.00 0.00 0.00 82 1018.7
20260902142118 81 310 0.0 0.0 0.00 0.00 0.00 82 1018.7
20260902141516 81 90 0.0 0.0 0.00 0.00 0.00 84 1018.7
20260902141016 81 82 0.0 0.0 0.00 0.00 0.00 84 1018.7
20260902140514 80 241 0.0 0.0 0.00 0.00 0.00 87 1018.7
20260902140015 80 33 0.0 0.0 0.00 0.00 0.00 87 1018.7
20260902135511 79 67 0.0 0.0 0.00 0.00 0.00 90 1018.7
20260902135010 79 44 0.0 0.0 0.00 0.00 0.00 92 1018.9
20260902134517 77 98 0.0 0.0 0.00 0.00 0.00 95 1018.9
20260902134007 75 98 0.0 0.0 0.00 0.00 0.00 97 1018.9
20260902133509 75 98 0.0 0.0 0.00 0.00 0.00 97 1018.8
20260902133006 75 98 0.0 0.0 0.00 0.00 0.00 97 1018.9
20260902132509 74 98 0.0 0.0 0.00 0.00 0.00 97 1018.9
20260902132006 74 98 0.0 0.0 0.00 0.00 0.00 97 1018.9
20260902131506 74 98 0.0 0.0 0.00 0.00 0.00 97 1018.9
20260902131006 73 98 0.0 0.0 0.00 0.00 0.00 97 1018.9
20260902130505 73 98 0.0 0.0 0.00 0.00 0.00 97 1018.8
20260902130004 73 98 0.0 0.0 0.00 0.00 0.00 97 1018.7
20260902125504 72 98 0.0 0.0 0.00 0.00 0.00 97 1018.7
20260902125006 72 98 0.0 0.0 0.00 0.00 0.00 97 1018.7
20260902124504 72 98 0.0 0.0 0.00 0.00 0.00 97 1018.7
20260902124003 72 98 0.0 0.0 0.00 0.00 0.00 96 1018.7
20260902123503 72 98 0.0 0.0 0.00 0.00 0.00 96 1018.8
20260902123003 71 98 0.0 0.0 0.00 0.00 0.00 96 1018.7
20260902122504 71 98 0.0 0.0 0.00 0.00 0.00 96 1018.7
20260902122001 71 98 0.0 0.0 0.00 0.00 0.00 96 1018.6
20260902121505 71 98 0.0 0.0 0.00 0.00 0.00 96 1018.6
20260902121001 71 98 0.0 0.0 0.00 0.00 0.00 96 1018.6
20260902120600 71 98 0.0 0.0 0.00 0.00 0.00 96 1018.5
20260902120101 71 98 0.0 0.0 0.00 0.00 0.00 96 1018.3
20260902115559 71 98 0.0 0.0 0.00 0.00 0.00 96 1018.2
20260902115058 71 98 0.0 0.0 0.00 0.00 0.00 96 1018.2
20260902114558 70 98 0.0 0.0 0.00 0.00 0.00 96 1018.2
20260902114057 70 98 0.0 0.0 0.00 0.00 0.00 96 1018.0
20260902113556 70 98 0.0 0.0 0.00 0.00 0.00 95 1018.0
20260902113058 70 98 0.0 0.0 0.00 0.00 0.00 95 1017.9
20260902112556 70 98 0.0 0.0 0.00 0.00 0.00 96 1017.9
20260902112059 70 98 0.0 0.0 0.00 0.00 0.00 96 1017.9
20260902111556 70 98 0.0 0.0 0.00 0.00 0.00 96 1017.9
20260902111054 70 98 0.0 0.0 0.00 0.00 0.00 95 1017.7
20260902110554 70 98 0.0 0.0 0.00 0.00 0.00 96 1017.7
20260902110058 70 98 0.0 0.0 0.00 0.00 0.00 96 1017.7
20260902105555 71 98 0.0 0.0 0.00 0.00 0.00 95 1017.7
20260902105053 71 98 0.0 0.0 0.00 0.00 0.00 95 1017.6
20260902104616 71 98 0.0 0.0 0.00 0.00 0.00 95 1017.7
20260902104052 71 98 0.0 0.0 0.00 0.00 0.00 95 1017.6
20260902103552 71 98 0.0 0.0 0.00 0.00 0.00 95 1017.7
20260902103052 71 98 0.0 0.0 0.00 0.00 0.00 95 1017.7
20260902102553 71 98 0.0 0.0 0.00 0.00 0.00 95 1017.7
20260902102054 71 98 0.0 0.0 0.00 0.00 0.00 95 1017.6
20260902101550 71 98 0.0 0.0 0.00 0.00 0.00 95 1017.6
20260902101049 71 98 0.0 0.0 0.00 0.00 0.00 95 1017.5
20260902100551 71 98 0.0 1.0 0.00 0.00 0.00 95 1017.5
20260902100107 71 98 0.0 2.0 0.00 0.00 0.00 95 1017.5
20260902095551 71 98 0.0 2.0 0.00 0.00 0.00 95 1017.4
20260902095047 71 98 0.0 0.0 0.00 0.00 0.00 95 1017.3
20260902094546 71 98 0.0 0.0 0.00 0.00 0.00 95 1017.3
20260902094046 71 98 0.0 0.0 0.00 0.00 0.00 96 1017.3
20260902093545 71 98 0.0 0.0 0.00 0.00 0.00 96 1017.2
20260902093048 71 98 0.0 0.0 0.00 0.00 0.00 96 1017.2
20260902092546 71 98 0.0 0.0 0.00 0.00 0.00 96 1017.2
20260902092044 71 98 0.0 0.0 0.00 0.00 0.00 96 1017.1
20260902091543 71 98 0.0 0.0 0.00 0.00 0.00 96 1017.0
20260902091045 71 98 0.0 0.0 0.00 0.00 0.00 96 1017.0
20260902090543 71 98 0.0 0.0 0.00 0.00 0.00 96 1017.0
20260902090043 71 98 0.0 0.0 0.00 0.00 0.00 96 1017.0
20260902085542 71 98 0.0 0.0 0.00 0.00 0.00 96 1017.0
20260902085041 71 98 0.0 1.0 0.00 0.00 0.00 96 1017.0
20260902084542 71 98 0.0 2.0 0.00 0.00 0.00 96 1016.9
20260902084042 71 98 0.0 1.0 0.00 0.00 0.00 96 1016.8
20260902083541 71 98 0.0 2.0 0.00 0.00 0.00 96 1016.7
20260902083050 71 98 0.0 2.0 0.00 0.00 0.00 96 1016.7
20260902082540 71 98 0.0 1.0 0.00 0.00 0.00 95 1016.6
20260902082040 72 98 0.0 1.0 0.00 0.00 0.00 95 1016.7
20260902081603 72 98 0.0 0.0 0.00 0.00 0.00 96 1016.6
20260902081039 72 98 0.0 0.0 0.00 0.00 0.00 96 1016.5
20260902080543 72 98 0.0 0.0 0.00 0.00 0.00 96 1016.4
20260902080048 72 98 0.0 0.0 0.00 0.00 0.00 96 1016.4
20260902075538 72 98 0.0 0.0 0.00 0.00 0.00 96 1016.5
20260902075037 72 98 0.0 0.0 0.00 0.00 0.00 96 1016.4
20260902074539 72 98 0.0 0.0 0.00 0.00 0.00 96 1016.4
20260902074037 72 98 0.0 0.0 0.00 0.00 0.00 96 1016.5
20260902073538 72 98 0.0 0.0 0.00 0.00 0.00 96 1016.6
20260902073037 72 98 0.0 0.0 0.00 0.00 0.00 96 1016.6
20260902072535 72 98 0.0 0.0 0.00 0.00 0.00 96 1016.6
20260902072038 72 98 0.0 0.0 0.00 0.00 0.00 96 1016.6
20260902071538 72 98 0.0 0.0 0.00 0.00 0.00 96 1016.7
20260902071035 72 98 0.0 0.0 0.00 0.00 0.00 96 1016.8
20260902070534 72 98 0.0 0.0 0.00 0.00 0.00 96 1016.7
20260902070037 72 98 0.0 0.0 0.00 0.00 0.00 96 1016.6
20260902065537 72 98 0.0 0.0 0.00 0.00 0.00 96 1016.7
20260902065036 72 98 0.0 0.0 0.00 0.00 0.00 96 1016.7
20260902064535 72 98 0.0 0.0 0.00 0.00 0.00 96 1016.7
20260902064033 72 98 0.0 1.0 0.00 0.00 0.00 96 1016.7
20260902063534 72 98 0.0 1.0 0.00 0.00 0.00 95 1016.7
20260902063037 72 98 0.0 0.0 0.00 0.00 0.00 95 1016.7
20260902062533 72 98 0.0 0.0 0.00 0.00 0.00 95 1016.7
20260902062033 72 98 0.0 1.0 0.00 0.00 0.00 95 1016.7
20260902061532 72 98 0.0 1.0 0.00 0.00 0.00 95 1016.9
20260902061037 72 98 0.0 0.0 0.00 0.00 0.00 95 1016.9
20260902060530 73 98 0.0 0.0 0.00 0.00 0.00 95 1016.8
20260902060033 73 98 0.0 0.0 0.00 0.00 0.00 95 1016.7
20260902055530 73 98 0.0 0.0 0.00 0.00 0.00 95 1016.8
20260902055030 73 98 0.0 0.0 0.00 0.00 0.00 95 1016.8
20260902054528 73 98 0.0 0.0 0.00 0.00 0.00 95 1016.8
20260902054028 73 98 0.0 0.0 0.00 0.00 0.00 94 1016.7
20260902053528 73 98 0.0 0.0 0.00 0.00 0.00 94 1016.8
20260902053028 73 98 0.0 0.0 0.00 0.00 0.00 94 1016.8
20260902052527 73 98 0.0 0.0 0.00 0.00 0.00 94 1016.7
20260902052027 73 98 0.0 0.0 0.00 0.00 0.00 94 1016.7
20260902051527 73 98 0.0 0.0 0.00 0.00 0.00 94 1016.8
20260902051030 73 98 0.0 0.0 0.00 0.00 0.00 94 1016.7
20260902050527 73 98 0.0 0.0 0.00 0.00 0.00 94 1016.7
20260902050026 73 98 0.0 0.0 0.00 0.00 0.00 94 1016.6
20260902045525 73 98 0.0 0.0 0.00 0.00 0.00 94 1016.7
20260902045025 73 98 0.0 0.0 0.00 0.00 0.00 93 1016.7
20260902044538 73 98 0.0 0.0 0.00 0.00 0.00 93 1016.7
20260902044025 73 98 0.0 0.0 0.00 0.00 0.00 93 1016.7
20260902043524 73 98 0.0 0.0 0.00 0.00 0.00 93 1016.7
20260902043023 74 98 0.0 0.0 0.00 0.00 0.00 93 1016.7
20260902042523 74 98 0.0 0.0 0.00 0.00 0.00 93 1016.7
20260902042022 74 98 0.0 0.0 0.00 0.00 0.00 92 1016.7
20260902041522 74 98 0.0 0.0 0.00 0.00 0.00 92 1016.7
20260902041020 75 98 0.0 0.0 0.00 0.00 0.00 92 1016.7
20260902040519 75 98 0.0 0.0 0.00 0.00 0.00 92 1016.7
20260902040018 75 98 0.0 0.0 0.00 0.00 0.00 92 1016.7
20260902035517 75 98 0.0 0.0 0.00 0.00 0.00 91 1016.8
20260902035017 75 98 0.0 0.0 0.00 0.00 0.00 91 1016.8
20260902034517 75 98 0.0 0.0 0.00 0.00 0.00 91 1016.8
20260902034017 75 98 0.0 0.0 0.00 0.00 0.00 91 1016.7
20260902033517 75 98 0.0 0.0 0.00 0.00 0.00 91 1016.8
20260902033017 75 98 0.0 0.0 0.00 0.00 0.00 90 1016.8
20260902032521 75 98 0.0 0.0 0.00 0.00 0.00 90 1016.8
20260902032017 75 98 0.0 0.0 0.00 0.00 0.00 90 1016.8
20260902031525 75 98 0.0 0.0 0.00 0.00 0.00 90 1016.8
20260902031017 76 98 0.0 0.0 0.00 0.00 0.00 90 1016.8
20260902030516 76 98 0.0 1.0 0.00 0.00 0.00 89 1016.8
20260902030016 76 98 0.0 1.0 0.00 0.00 0.00 89 1016.9
20260902025516 76 98 0.0 0.0 0.00 0.00 0.00 89 1016.8
20260902025016 76 98 0.0 0.0 0.00 0.00 0.00 89 1016.9
20260902024516 76 98 0.0 0.0 0.00 0.00 0.00 89 1016.8
20260902024017 77 98 0.0 0.0 0.00 0.00 0.00 88 1016.8
20260902023515 77 98 0.0 0.0 0.00 0.00 0.00 87 1016.8
20260902023015 77 98 0.0 0.0 0.00 0.00 0.00 88 1016.8
20260902022515 77 98 0.0 0.0 0.00 0.00 0.00 87 1016.7
20260902022015 77 98 0.0 0.0 0.00 0.00 0.00 87 1016.8
20260902021520 77 98 0.0 0.0 0.00 0.00 0.00 86 1016.7
20260902021016 78 98 0.0 0.0 0.00 0.00 0.00 86 1016.7
20260902020516 78 98 0.0 0.0 0.00 0.00 0.00 85 1016.7
20260902020014 78 98 0.0 0.0 0.00 0.00 0.00 85 1016.6
20260902015514 78 98 0.0 0.0 0.00 0.00 0.00 86 1016.5
20260902015014 78 98 0.0 0.0 0.00 0.00 0.00 86 1016.4
20260902014534 78 98 0.0 0.0 0.00 0.00 0.00 85 1016.4
20260902014013 78 98 0.0 0.0 0.00 0.00 0.00 85 1016.4
20260902013514 78 98 0.0 0.0 0.00 0.00 0.00 85 1016.3
20260902013013 79 98 0.0 0.0 0.00 0.00 0.00 85 1016.2
20260902012513 79 98 0.0 0.0 0.00 0.00 0.00 85 1016.2
20260902012016 79 98 0.0 0.0 0.00 0.00 0.00 84 1016.2
20260902011513 79 98 0.0 0.0 0.00 0.00 0.00 82 1016.1
20260902011014 79 98 0.0 0.0 0.00 0.00 0.00 83 1016.1
20260902010512 80 98 0.0 0.0 0.00 0.00 0.00 82 1016.1
20260902010015 80 98 0.0 0.0 0.00 0.00 0.00 81 1016.0
20260902005512 81 98 0.0 0.0 0.00 0.00 0.00 79 1016.0
20260902005014 81 98 0.0 0.0 0.00 0.00 0.00 80 1016.0
20260902004512 81 98 0.0 0.0 0.00 0.00 0.00 79 1016.0
20260902004015 81 98 0.0 0.0 0.00 0.00 0.00 78 1015.9
20260902003513 82 98 0.0 0.0 0.00 0.00 0.00 77 1015.9
20260902003012 82 98 0.0 0.0 0.00 0.00 0.00 75 1016.0
20260902002513 83 98 0.0 0.0 0.00 0.00 0.00 73 1015.9
20260902002011 83 98 0.0 0.0 0.00 0.00 0.00 74 1015.8
20260902001511 83 98 0.0 0.0 0.00 0.00 0.00 72 1015.9
20260902001012 83 98 0.0 0.0 0.00 0.00 0.00 74 1015.9
20260902000510 84 98 0.0 0.0 0.00 0.00 0.00 73 1015.8
20260902000010 85 98 0.0 0.0 0.00 0.00 0.00 71 1015.8
20260901235512 85 98 0.0 0.0 0.00 0.00 0.00 67 1015.8
20260901235009 85 98 0.0 0.0 0.00 0.00 0.00 71 1015.8
20260901234525 86 98 0.0 0.0 0.00 0.00 0.00 67 1015.9
20260901234009 86 98 0.0 0.0 0.00 0.00 0.00 69 1016.0
20260901233510 86 98 0.0 0.0 0.00 0.00 0.00 65 1016.0
20260901233011 87 98 0.0 0.0 0.00 0.00 0.00 65 1016.0
20260901232508 87 98 0.0 0.0 0.00 0.00 0.00 63 1016.1
20260901232008 88 98 0.0 0.0 0.00 0.00 0.00 64 1016.1
20260901231508 88 98 0.0 0.0 0.00 0.00 0.00 62 1016.1
20260901231008 89 98 0.0 0.0 0.00 0.00 0.00 60 1016.1
20260901230507 89 98 0.0 0.0 0.00 0.00 0.00 60 1016.1
20260901230011 90 98 0.0 0.0 0.00 0.00 0.00 60 1015.9
20260901225505 90 98 0.0 1.0 0.00 0.00 0.00 58 1016.0
20260901225004 90 98 0.0 1.0 0.00 0.00 0.00 56 1016.0
20260901224504 90 98 0.0 0.0 0.00 0.00 0.00 58 1015.9
20260901224004 91 98 0.0 3.0 0.00 0.00 0.00 57 1015.8
20260901223503 92 98 0.0 3.0 0.00 0.00 0.00 54 1015.9
20260901223005 92 119 1.0 5.0 0.00 0.00 0.00 53 1015.8
20260901222503 92 115 2.0 5.0 0.00 0.00 0.00 53 1015.8
20260901222005 92 65 1.0 3.0 0.00 0.00 0.00 55 1015.8
20260901221507 92 109 0.0 2.0 0.00 0.00 0.00 54 1015.8
20260901221003 91 85 0.0 1.0 0.00 0.00 0.00 54 1015.7
20260901220502 91 126 0.0 1.0 0.00 0.00 0.00 54 1015.8
20260901220002 92 77 0.0 5.0 0.00 0.00 0.00 55 1015.7
20260901215503 92 84 1.0 5.0 0.00 0.00 0.00 53 1015.7
20260901215003 92 136 1.0 3.0 0.00 0.00 0.00 54 1015.7
20260901214500 92 78 0.0 3.0 0.00 0.00 0.00 54 1015.7
20260901214100 92 90 1.0 3.0 0.00 0.00 0.00 55 1015.8
20260901213601 92 5 0.0 1.0 0.00 0.00 0.00 55 1015.8
20260901213106 91 49 0.0 0.0 0.00 0.00 0.00 57 1015.8
20260901212600 92 49 0.0 0.0 0.00 0.00 0.00 59 1015.8
20260901212100 92 348 0.0 0.0 0.00 0.00 0.00 56 1015.8
20260901211532 92 355 0.0 1.0 0.00 0.00 0.00 54 1015.8
20260901211100 92 65 0.0 2.0 0.00 0.00 0.00 53 1015.9
20260901210558 92 84 0.0 3.0 0.00 0.00 0.00 56 1015.9
20260901210058 93 94 0.0 3.0 0.00 0.00 0.00 52 1016.0
20260901205600 93 95 1.0 6.0 0.00 0.00 0.00 52 1015.9
20260901205057 93 92 1.0 6.0 0.00 0.00 0.00 52 1016.0
20260901204558 92 57 0.0 3.0 0.00 0.00 0.00 54 1016.0
20260901204056 92 124 0.0 2.0 0.00 0.00 0.00 53 1016.1
20260901203556 92 66 0.0 2.0 0.00 0.00 0.00 54 1016.2
20260901203102 92 323 0.0 3.0 0.00 0.00 0.00 53 1016.2
20260901202554 92 336 0.0 3.0 0.00 0.00 0.00 54 1016.2
20260901202054 92 267 1.0 3.0 0.00 0.00 0.00 52 1016.3
20260901201556 92 61 1.0 4.0 0.00 0.00 0.00 54 1016.4
20260901201054 92 350 1.0 4.0 0.00 0.00 0.00 53 1016.5
20260901200553 92 111 0.0 3.0 0.00 0.00 0.00 53 1016.5
20260901200053 93 104 1.0 6.0 0.00 0.00 0.00 51 1016.5
20260901195553 93 78 1.0 6.0 0.00 0.00 0.00 51 1016.5
20260901195053 93 136 2.0 5.0 0.00 0.00 0.00 54 1016.5
20260901194552 92 360 1.0 4.0 0.00 0.00 0.00 55 1016.6
20260901194052 92 292 0.0 3.0 0.00 0.00 0.00 55 1016.7
20260901193550 92 267 1.0 3.0 0.00 0.00 0.00 53 1016.8
20260901193103 92 290 0.0 3.0 0.00 0.00 0.00 56 1016.9
20260901192549 92 27 1.0 5.0 0.00 0.00 0.00 55 1016.9
20260901192049 93 69 0.0 5.0 0.00 0.00 0.00 54 1017.0
20260901191550 92 98 1.0 4.0 0.00 0.00 0.00 53 1017.1
20260901191047 93 292 2.0 4.0 0.00 0.00 0.00 53 1017.0
20260901190549 92 12 1.0 4.0 0.00 0.00 0.00 55 1017.2
20260901190046 92 152 1.0 4.0 0.00 0.00 0.00 55 1017.2
20260901185546 92 53 1.0 2.0 0.00 0.00 0.00 58 1017.4
20260901185047 92 294 0.0 3.0 0.00 0.00 0.00 57 1017.3
20260901184548 92 313 1.0 3.0 0.00 0.00 0.00 58 1017.3
20260901184046 92 242 1.0 3.0 0.00 0.00 0.00 60 1017.5
20260901183546 91 355 1.0 4.0 0.00 0.00 0.00 56 1017.5
20260901183044 92 111 2.0 4.0 0.00 0.00 0.00 56 1017.6
20260901182546 91 119 1.0 3.0 0.00 0.00 0.00 56 1017.6
20260901182044 91 223 0.0 3.0 0.00 0.00 0.00 57 1017.6
20260901181543 91 355 0.0 3.0 0.00 0.00 0.00 55 1017.6
20260901181045 91 97 0.0 4.0 0.00 0.00 0.00 57 1017.8
20260901180544 91 242 1.0 4.0 0.00 0.00 0.00 55 1017.7
20260901180042 91 348 0.0 3.0 0.00 0.00 0.00 56 1017.8
20260901175544 91 215 0.0 3.0 0.00 0.00 0.00 56 1017.9
20260901175041 91 142 1.0 3.0 0.00 0.00 0.00 55 1017.9
20260901174541 91 98 1.0 3.0 0.00 0.00 0.00 55 1018.0
20260901174042 91 88 0.0 1.0 0.00 0.00 0.00 56 1018.0
20260901173542 91 57 0.0 0.0 0.00 0.00 0.00 58 1018.1
20260901173039 91 183 0.0 0.0 0.00 0.00 0.00 57 1018.1
20260901172539 90 120 0.0 0.0 0.00 0.00 0.00 55 1018.3
20260901172039 90 42 0.0 0.0 0.00 0.00 0.00 60 1018.3
20260901171539 90 324 0.0 0.0 0.00 0.00 0.00 62 1018.4
20260901171038 89 233 0.0 0.0 0.00 0.00 0.00 60 1018.4
20260901170538 90 254 0.0 0.0 0.00 0.00 0.00 59 1018.5
20260901170036 89 330 0.0 0.0 0.00 0.00 0.00 61 1018.5
20260901165534 89 297 0.0 0.0 0.00 0.00 0.00 64 1018.6
20260901165034 89 11 0.0 0.0 0.00 0.00 0.00 61 1018.7